This demonstration page uses our WeatherBlox Daily Observations layout. Learn more.

41.55636, -103.73856

Hourly Observations for December 14, 2015

Temp ( °F °C ) Dew Point ( °F °C ) Humidity (%) Winds ( mph kmh ) Pressure ( in mb ) Visibility ( mi km ) Precip ( " mm )
12:53 am 00:53 Clear 17 -8.3 14 -10 88 88 NW 3 6 29.63 1003 10 16.0934 0 0
1:53 am 01:53 Clear 15 -9.4 11 -11.7 84 84 W 3 6 29.63 1004 10 16.0934 0 0
2:53 am 02:53 Clear 16 -8.9 12 -11.1 84 84 NW 3 6 29.62 1003 10 16.0934 0 0
3:53 am 03:53 Clear 16 -8.9 13 -10.6 88 88 NNW 3 6 29.64 1004 10 16.0934 0 0
4:53 am 04:53 Clear 16 -8.9 13 -10.6 88 88 N 5 7 29.64 1004 10 16.0934 0 0
5:53 am 05:53 Clear 14 -10 10 -12.2 84 84 WSW 7 11 29.66 1005 10 16.0934 0 0
6:53 am 06:53 Clear 15 -9.4 12 -11.1 88 88 N 7 11 29.68 1005 10 16.0934 0 0
7:53 am 07:53 Sunny 17 -8.3 13 -10.6 84 84 NW 5 7 29.68 1005 10 16.0934 0 0
8:53 am 08:53 Sunny 23 -5 19 -7.2 85 85 NNW 3 6 29.67 1005 10 16.0934 0 0
9:53 am 09:53 Sunny 26 -3.3 22 -5.6 84 84 S 3 6 29.65 1004 10 16.0934 0 0
10:53 am 10:53 Sunny 29 -1.7 24 -4.4 82 82 S 3 6 29.64 1004 10 16.0934 0 0
11:53 am 11:53 Sunny 31 -0.6 25 -3.9 79 79 SSE 12 19 29.62 1003 10 16.0934 0 0
12:53 pm 12:53 Sunny 32 0 25 -3.9 75 75 ESE 12 19 29.63 1004 10 16.0934 0 0
1:53 pm 13:53 Sunny 33 0.6 26 -3.3 75 75 ESE 10 17 29.64 1004 10 16.0934 0 0
2:53 pm 14:53 Mostly Cloudy 34 1.1 28 -2.2 79 79 ESE 12 19 29.62 1003 10 16.0934 0 0
3:53 pm 15:53 Partly Cloudy 33 0.6 27 -2.8 78 78 E 6 9 29.63 1003 10 16.0934 0 0
4:53 pm 16:53 Clear 29 -1.7 26 -3.3 89 89 NE 9 15 29.65 1004 10 16.0934 0 0
5:53 pm 17:53 Clear 27 -2.8 25 -3.9 92 92 ENE 8 13 29.67 1005 10 16.0934 0 0
6:53 pm 18:53 Clear 25 -3.9 22 -5.6 88 88 ENE 8 13 29.7 1006 10 16.0934 0 0
7:38 pm 19:38 Partly Cloudy 23 -5 19 -7 86 86 E 7 11 29.77 1008 10 16.0934 0 0
7:53 pm 19:53 Mostly Cloudy 24 -4.4 23 -5 96 96 ENE 8 13 29.7 1006 8 12.87472 0 0
8:36 pm 20:36 Cloudy 25 -4 23 -5 93 93 E 6 9 29.77 1008 10 16.0934 0 0
8:53 pm 20:53 Cloudy 25 -3.9 23 -5 92 92 E 8 13 29.72 1006 10 16.0934 0 0
9:53 pm 21:53 Cloudy 24 -4.4 22 -5.6 91 91 ENE 10 17 29.71 1006 10 16.0934 0 0
10:03 pm 22:03 Cloudy 25 -4 21 -6 86 86 ENE 9 15 29.8 1009 10 16.0934 0 0
10:13 pm 22:13 Cloudy 24 -4.4 21 -6.1 88 88 NE 10 17 29.8 1009 10 16.0934 0 0
10:53 pm 22:53 Cloudy 25 -3.9 22 -5.6 88 88 NNE 10 17 29.71 1006 10 16.0934 0 0
11:49 pm 23:49 Cloudy 25 -4 21 -6 86 86 NE 15 24 29.8 1009 10 16.0934 0 0
11:53 pm 23:53 Cloudy 25 -3.9 22 -5.6 88 88 ENE 13 20 29.71 1006 10 16.0934 0 0

Powered by AerisWeather